Weather History for CWBT - February, 2013

Change the Weather History Date:

Tuesday, February 19, 2013

  Actual Average (CYGV) Record (CYGV)
Temperature  
Mean Temperature 32 °F -  
Max Temperature 42 °F 17 °F 39 °F (2013)
Min Temperature 17 °F 0 °F -14 °F (2000)
Degree Days  
Heating Degree Days 32    
Moisture  
Dew Point 23 °F    
Average Humidity 69    
Maximum Humidity 93    
Minimum Humidity 40    
Precipitation  
Precipitation 0.00 in - - ()
Sea Level Pressure  
Sea Level Pressure 29.72 in    
Wind  
Wind Speed 7 mph ()    
Max Wind Speed 12 mph    
Max Gust Speed 24 mph    
Averages and records for this station are not official NWS values.
T = Trace of Precipitation, MM = Missing Value Source: Averaged Metar Reports

Daily Weather History Graph

Daily Weather History Graph

Search for Another Location

Airport or City:

Trip Planner

Search our weather history database for the weather conditions in past years. The results will help you decide how hot, cold, wet, or windy it might be!

Date:

Astronomy

Feb. 19, 2013 Rise Set
Actual Time 6:20 AM EST 4:42 PM EST
Civil Twilight 5:46 AM EST 5:15 PM EST
Nautical Twilight 5:09 AM EST 5:53 PM EST
Astronomical Twilight 4:31 AM EST 6:30 PM EST
Moon 10:51 AM EST (2/19) 2:07 AM EST (2/19)
Length of Visible Light 11h 28m
Length of Day
10h 22m
Waxing Gibbous, 67% of the Moon is Illuminated
Feb 19
Waxing Gibbous
Feb 25
Full
Mar 4
Last Quarter
Mar 11
New
Mar 19
First Quarter

Hourly Weather History & Observations

Time (EST) Temp. Windchill Dew Point Humidity Pressure Visibility Wind Dir Wind Speed Gust Speed Precip Events Conditions
12:00 AM 31.3 °F 22.1 °F 24.1 °F 75% 29.33 in - NNW 11.5 mph 21.9 mph N/A   Unknown
1:00 AM 31 °F - 24 °F 64% 29.37 in - NNW 9.2 mph - -  
1:00 AM 30.7 °F 22.6 °F 23.5 °F 75% 29.37 in - NNW 9.2 mph 18.4 mph N/A   Unknown
2:00 AM 29.7 °F 20.7 °F 22.8 °F 76% 29.41 in - NW 10.4 mph 19.6 mph N/A   Unknown
3:00 AM 29.8 °F 21.5 °F 22.8 °F 75% 29.46 in - NW 9.2 mph 18.4 mph N/A   Unknown
4:00 AM 29.8 °F 21.5 °F 22.1 °F 73% 29.49 in - NNW 9.2 mph 18.4 mph N/A   Unknown
5:00 AM 29.7 °F 20.7 °F 22.1 °F 73% 29.53 in - NNW 10.4 mph 24.2 mph N/A   Unknown
7:00 AM 31 °F - 23 °F 63% 29.63 in - NNW 6.9 mph - -  
7:00 AM 30.6 °F 23.8 °F 23.2 °F 74% 29.63 in - NNW 6.9 mph - N/A   Unknown
8:00 AM 32.0 °F 24.2 °F 23.5 °F 71% 29.67 in - NNW 9.2 mph - N/A   Unknown
9:00 AM 34.9 °F 27.7 °F 24.3 °F 65% 29.70 in - North 9.2 mph 19.6 mph N/A   Unknown
10:00 AM 37.2 °F 31.2 °F 25.7 °F 63% 29.74 in - North 8.1 mph 18.4 mph N/A   Unknown
11:00 AM 39.7 °F 33.7 °F 25.0 °F 56% 29.78 in - North 9.2 mph 19.6 mph N/A   Unknown
1:00 PM 42 °F - 26 °F 40% 29.83 in - NNW 4.6 mph - -  
1:00 PM 41.5 °F 38.6 °F 25.7 °F 53% 29.83 in - NNW 4.6 mph - N/A   Unknown
2:00 PM 41.4 °F 36.2 °F 24.6 °F 51% 29.85 in - NW 8.1 mph - N/A   Unknown
3:00 PM 37.0 °F 31.6 °F 22.8 °F 56% 29.88 in - North 6.9 mph - N/A   Unknown
4:00 PM 34.7 °F 29.6 °F 21.6 °F 59% 29.90 in - North 5.8 mph - N/A   Unknown
5:00 PM 27.3 °F - 23.4 °F 85% 29.94 in - West 1.2 mph - N/A   Unknown
6:00 PM 26.1 °F 21.9 °F 23.7 °F 91% 29.96 in - NNW 3.5 mph - N/A   Unknown
8:00 PM 26.4 °F 22.4 °F 19.2 °F 74% 29.96 in - North 3.5 mph - N/A   Unknown
9:00 PM 25.0 °F 20.7 °F 18.3 °F 76% 29.97 in - NNE 3.5 mph - N/A   Unknown
10:00 PM 23.4 °F - 16.7 °F 76% 29.97 in - NE 1.2 mph - N/A   Unknown
11:00 PM 17.8 °F - 16.0 °F 93% 29.99 in - West 2.3 mph - N/A   Unknown